CAPE
0 0 0 0 0 0 0 0 0 0 0 0 0 0 0 0 0 0 0 0 0 0 0 0 0 0 0 2 137 1181 2191 1990 2550 2800 2715 2652 2287 2565 2398 2055 2151 2260 2294 2010 2131 2122 1693 1501 1158 1186 1141 1301 1698 1721 1569 1747 1626 1655 1551 1453 1331 1543 1588 1716 1967 1961 1963 1933 1944 2056 1953 1945 1966 1947 2040 2027 2122 2227 2330 2312 2159 2123 2207 2050 2033 1938
0 0 0 0 0 0 0 0 0 0 0 0 0 0 0 0 0 0 0 0 0 0 0 0 0 0 0 0 36 1296 2139 1992 2411 2705 2998 2612 2518 2525 2079 2107 2180 2350 2317 2147 2068 2094 1947 1024 1340 1172 1256 1342 1375 1734 1541 1564 1702 1687 1462 1290 1437 1744 1867 1875 1968 2017 2059 2162 2188 2318 2078 2010 1932 1912 1918 2168 2270 2571 2625 2366 2211 2063 2013 2073 2101 1915
0 0 0 0 0 0 0 0 0 0 0 0 0 0 0 0 0 0 0 0 0 0 0 0 0 0 0 0 4 1097 2096 2117 1925 1640 2250 2203 1875 2063 2101 2238 2372 2388 2513 2289 2298 2177 1771 1086 1327 1626 1610 1347 1392 1669 1718 1569 1564 1566 1522 1363 1638 1796 1871 1789 1827 1913 2308 2034 2196 2043 1950 1911 1878 2014 2256 2658 2529 2699 2377 2279 2312 2119 2159 1896 1980 2154
0 0 0 0 0 0 0 0 0 0 0 0 0 0 0 0 0 0 0 0 0 0 0 0 0 0 0 0 18 941 1556 2163 1901 1413 1453 1756 1462 1931 1750 2313 2457 2518 2434 2275 2222 2313 1772 1319 1489 1473 1350 1365 1464 1704 1717 1521 1562 1690 1726 1425 1764 1848 1758 1823 1968 1906 2271 2091 2409 2150 1908 2112 1994 2088 2157 2447 2284 2184 2045 2092 2063 1962 2001 1861 2058 2085
0 0 0 0 0 0 0 0 0 0 0 0 0 0 0 0 0 0 0 0 0 0 0 0 0 0 0 106 342 782 1127 1525 2597 2654 2316 2257 1486 932 1909 2674 2198 2243 2214 2140 2193 2204 1677 1466 1436 1395 1446 1437 1376 1449 1616 1641 1545 1525 1608 1642 1925 1902 1741 2007 1844 2184 2290 2290 2229 2060 1890 1835 1978 1879 1852 1896 1892 1776 1836 1709 2035 2066 1965 1987 2052 1922
0 0 0 0 0 0 0 0 0 0 0 0 0 0 0 0 0 0 0 0 0 0 0 0 0 0 0 24 10 223 740 1151 2236 2202 2076 1822 2212 2877 2720 2555 2098 2002 2136 2309 2177 1818 1375 1344 1346 1572 1455 1364 1369 1380 1337 1424 1480 1500 1523 1758 1689 1684 1887 1846 1914 2331 2280 1842 1883 1978 1723 1725 1730 1879 1915 1732 1752 1658 1756 1687 1789 1923 1773 1955 1861 1922
0 0 0 0 0 0 0 0 0 0 0 0 0 0 0 0 0 0 0 0 0 0 0 0 0 0 0 0 7 88 401 667 1525 1967 1593 1581 1898 2411 2443 2288 1884 1881 2076 2210 1974 1620 1425 1314 1430 1299 1270 1441 1506 1429 1296 1402 1448 1538 1528 1502 1657 1820 1866 1696 1625 1835 1776 2140 1996 1620 1705 1710 1697 1650 1681 1593 1682 1677 1430 1713 1811 1721 1974 1646 1758 1716
0 0 0 0 0 0 0 0 0 0 0 0 0 0 0 0 0 0 0 0 0 0 0 0 0 0 0 0 0 36 141 299 1082 1450 1453 1234 1568 2001 2271 2197 2210 2013 2061 2067 1830 1664 1535 1436 1523 1529 1386 1449 1488 1400 1375 1469 1526 1522 1557 1435 1895 2020 2042 1841 2258 2240 2102 2090 1855 1552 1603 1590 1612 1584 1622 1643 1632 1651 1528 1668 1590 1636 1560 1506 1546 1406
0 0 0 0 0 0 0 0 0 0 0 0 0 0 0 0 0 0 0 0 0 0 0 0 0 0 0 0 0 0 45 130 379 728 1317 1107 1106 1670 2193 2199 2129 2031 1980 2063 1846 1659 1638 1560 1640 1485 1444 1409 1348 1244 1456 1521 1568 1686 1583 1565 1515 1448 1672 1590 1822 2122 1767 1651 1636 1496 1696 1626 1537 1536 1536 1239 1123 1401 1394 1126 1353 1279 1059 1066 1188 1043
0 0 0 0 0 0 0 0 0 0 0 0 0 0 0 0 0 0 0 0 0 0 0 0 0 0 0 0 0 0 0 3 192 443 238 492 929 1449 1942 2066 2122 2001 2016 1798 1786 1866 1589 1735 1735 1652 1550 1417 1342 1449 1563 1695 1741 1729 1766 1733 1791 2038 2056 1919 1871 1648 1683 1528 1629 1593 1584 1459 1341 1240 1128 1079 1244 1272 1390 1075 1126 1113 1024 910 948 897
0 0 0 0 0 0 0 0 0 0 0 0 0 0 0 0 0 0 0 0 0 0 0 0 0 0 0 0 0 0 0 0 153 309 421 608 934 1712 2031 2030 1795 1911 2081 1949 1813 1796 1853 1716 1593 1499 1380 1391 1566 1474 1489 1599 1775 1737 1953 1954 1621 1775 1602 1609 1497 1504 1551 1500 1501 1568 1516 1341 1297 1103 1139 1092 1159 1017 1088 916 830 795 754 601 497 434
0 0 0 0 0 0 0 0 0 0 0 0 0 0 0 0 0 0 0 0 0 0 0 0 0 0 0 0 0 0 0 0 71 190 241 486 1164 1706 2046 1864 1755 2088 2121 1777 1708 1636 1509 1614 1360 1631 1603 1449 1475 1477 1492 1486 1440 1625 1809 1574 1435 1442 1386 1437 1398 1428 1401 1306 1336 1108 1233 1118 1069 1080 998 994 930 760 813 611 558 448 383 264 190 100
0 0 0 0 0 0 0 0 0 0 0 0 0 0 0 0 0 0 0 0 0 0 0 0 0 0 0 0 0 0 0 0 0 16 112 303 900 1813 2114 1792 1694 2214 2164 1919 1722 1598 1528 1504 1394 1414 1599 1447 1559 1560 1349 1348 1422 1452 1398 1430 1305 1255 1204 1202 1180 1182 1105 948 991 960 986 944 772 714 676 713 516 364 338 257 186 103 124 28 5 4
0 0 0 0 0 0 0 0 0 0 0 0 0 0 0 0 0 0 0 0 0 0 0 0 0 0 0 0 0 0 344 306 72 0 26 244 893 1586 1733 1773 1935 2056 2040 2054 1800 1650 1618 1500 1223 1290 1397 1457 1322 1309 1390 1488 1483 1294 1286 1217 1146 1019 1011 1002 1049 1035 937 780 745 729 639 585 505 440 384 307 206 75 62 32 36 6 3 2 3 3
0 0 0 0 0 0 0 0 0 0 0 0 0 0 0 0 0 0 0 0 0 0 0 0 0 0 0 7 83 1423 1070 901 1172 1304 660 292 684 1609 1589 1694 1936 1932 1970 2064 1850 1652 1508 1433 1158 1206 1255 1372 1272 1206 1501 1485 1376 1187 1139 1109 1030 827 794 680 720 607 355 354 357 335 308 279 235 143 46 11 2 7 6 5 4 4 2 2 0 0
0 0 0 0 0 0 0 0 0 0 0 0 0 0 0 0 0 0 0 0 0 0 0 0 0 0 0 646 790 304 996 885 1106 1137 1130 1460 1443 1572 1518 1883 1851 2019 2122 2013 1751 1490 1303 1254 1155 1164 1188 1254 1334 1304 1469 1429 1247 1082 815 718 798 708 644 516 402 407 388 413 381 322 30 5 4 3 5 6 5 6 7 6 4 3 5 2 0 0
0 0 0 0 0 0 0 0 0 0 0 0 0 0 0 0 0 0 0 0 0 0 0 0 0 0 97 710 720 429 397 802 1088 1429 1561 1762 1837 1667 1780 1767 1944 2050 1973 2105 1595 1369 1304 1171 1021 953 933 664 1106 1246 1196 1326 1248 1048 947 906 731 477 425 363 307 265 261 258 275 330 352 278 59 6 5 5 7 7 5 6 5 3 2 4 2 2
0 0 0 0 0 0 0 0 0 0 0 0 0 0 0 0 0 0 0 0 0 0 0 0 0 0 0 5 510 867 488 519 968 1270 1770 2000 1802 1881 1732 1739 1953 2113 1993 1617 1443 1247 1214 1023 870 779 883 720 730 699 920 1107 1068 959 986 834 610 351 347 270 177 139 294 330 376 427 449 367 268 367 386 355 132 4 4 3 1 1 0 3 3 2
0 0 0 0 0 0 0 0 0 0 0 0 0 0 0 0 0 0 0 0 0 0 0 0 0 0 0 551 143 910 926 945 900 1297 1714 1857 1845 1741 1834 1785 1906 1982 1590 1471 1333 1196 1002 944 727 644 722 814 677 659 669 674 691 701 621 511 350 360 238 126 114 279 332 385 456 529 497 479 494 469 402 108 3 3 2 2 2 2 2 2 2 1
0 0 0 0 0 0 0 0 0 0 0 0 0 0 0 0 0 0 0 0 0 0 0 0 0 0 0 94 14 279 756 1179 1229 1320 1524 1834 1872 1764 1886 1776 1858 1411 1426 1388 1262 1220 987 796 674 668 702 628 676 759 614 446 440 490 446 388 354 157 12 167 277 297 335 400 549 631 642 631 586 472 277 32 0 0 2 2 1 1 2 3 4 3
0 0 0 0 0 0 0 0 0 0 0 0 0 0 0 0 0 0 0 0 0 0 0 0 0 0 0 1 30 30 324 1358 1379 1473 1613 1792 1646 1781 1691 1671 1211 1264 1407 1322 1269 1270 951 652 638 625 602 536 558 415 509 422 103 475 467 405 312 54 3 4 294 308 357 404 560 718 749 660 515 314 20 2 2 2 2 3 1 3 3 2 2 4
0 0 0 0 0 0 0 0 0 0 0 0 0 0 0 0 0 0 0 0 0 0 0 0 0 40 265 424 1332 292 22 962 1472 1459 1722 1745 1661 1882 1447 1370 1281 1376 1433 1436 1218 1130 819 860 676 645 603 465 481 457 58 423 400 487 132 337 27 14 15 219 255 319 371 392 539 678 637 536 338 4 3 4 3 1 1 3 3 4 2 5 2 4
0 0 0 0 0 0 0 0 0 0 0 0 0 0 0 0 0 0 0 0 0 0 0 0 0 28 684 406 885 1412 1579 1498 1681 1589 1596 1565 1560 1395 1163 1251 1348 1386 1481 1426 1211 1012 791 682 590 559 514 479 426 361 346 268 290 152 185 156 8 28 60 97 226 317 323 393 458 521 474 329 2 3 4 4 2 2 2 3 3 2 4 3 3 4
0 0 0 0 0 0 0 0 0 0 0 0 0 0 0 0 0 0 0 0 0 0 0 0 0 293 548 735 712 849 1192 1432 1526 1434 1418 1330 1316 1040 961 1151 1299 1394 1332 1316 1197 958 900 631 586 551 478 476 315 374 397 165 98 117 34 59 78 154 177 215 227 204 3 286 354 388 301 159 2 4 3 3 3 3 3 2 3 2 2 4 3 3
0 0 0 0 0 0 0 0 0 0 0 0 0 0 0 0 0 0 0 0 0 0 0 0 0 0 1071 647 855 838 982 917 1003 1038 1101 1130 943 824 789 1025 1309 1389 1291 1163 985 820 607 584 575 556 449 413 450 467 476 455 356 386 202 14 127 180 0 0 2 3 2 3 294 293 123 3 2 3 3 4 4 4 3 3 4 4 2 4 3 3
0 0 0 0 0 0 0 0 0 0 0 0 0 0 0 0 0 0 0 0 0 0 0 0 0 818 682 585 826 914 832 874 876 974 911 754 746 762 749 998 1242 1344 1354 1146 934 582 488 596 483 307 369 401 386 395 383 488 465 393 396 362 351 18 32 240 234 46 39 4 244 217 58 2 2 2 3 3 4 4 4 4 4 3 4 2 2 4
0 0 0 0 0 0 0 0 0 0 0 0 0 0 0 0 0 0 0 0 0 0 0 0 0 490 924 786 1016 993 815 830 846 746 721 702 616 662 760 934 1019 1094 1054 1013 854 634 426 218 137 56 391 346 320 462 457 427 458 444 418 364 333 297 258 330 349 290 236 222 201 50 2 2 2 3 4 4 4 4 4 4 4 2 3 4 4 4
0 0 0 1 1 0 0 0 0 0 0 0 0 0 0 0 0 0 0 0 0 0 0 0 0 0 426 966 1045 1075 818 676 532 553 574 657 707 743 782 807 949 1011 982 911 861 656 247 224 213 348 330 222 250 375 225 324 320 251 153 155 210 235 272 321 250 82 0 27 0 74 2 2 4 3 4 4 3 3 4 3 4 4 4 4 4 4
0 0 0 0 1 0 0 0 0 0 0 0 0 0 0 0 0 0 0 0 0 0 0 0 0 0 10 994 1118 1150 847 594 416 446 591 682 803 806 757 726 832 857 853 794 768 589 473 352 72 226 245 249 252 255 298 159 26 2 2 2 64 154 222 219 164 94 0 0 15 2 2 2 3 3 4 2 4 4 3 4 4 3 2 3 3 3
0 0 0 0 0 0 0 0 0 0 0 0 0 0 0 0 0 0 0 0 0 0 0 2 0 0 0 154 1101 1094 827 487 425 458 618 746 838 928 916 881 788 723 700 694 684 570 362 238 21 95 204 271 288 236 0 20 13 0 0 2 40 175 209 177 135 50 0 1 1 0 0 1 3 3 2 3 3 3 3 3 3 3 3 2 2 2
0 0 0 0 0 2 1 0 0 0 0 0 0 0 0 0 0 0 0 0 0 0 0 0 0 0 991 1399 1094 852 738 486 360 535 640 757 810 898 974 913 795 764 744 673 590 505 404 97 105 150 100 227 111 48 77 58 10 15 18 17 189 118 217 154 132 0 0 0 0 0 0 1 2 3 2 2 2 3 1 2 4 3 4 4 3 3
0 13 0 1 0 3 0 0 0 0 0 0 0 0 0 0 0 0 0 0 0 0 0 0 0 0 1127 1087 960 715 569 401 397 478 590 702 794 872 954 968 875 859 798 729 642 490 183 119 141 209 200 268 240 196 116 5 16 153 261 135 183 250 209 162 83 0 0 0 0 0 0 0 2 2 2 2 2 3 2 2 2 2 3 4 4 4
0 1 0 0 0 4 17 0 0 0 0 0 0 0 0 0 0 0 0 0 0 0 0 0 0 0 1052 1130 763 627 544 454 378 406 562 664 742 841 922 937 850 814 759 741 428 148 160 222 147 153 345 378 271 215 194 139 177 323 273 174 277 283 210 182 58 0 0 0 0 0 0 0 1 1 2 3 2 2 3 3 2 3 3 4 4 4
0 0 4 1 0 0 9 7 0 0 0 0 264 332 82 0 0 0 0 1 6 0 0 30 746 1007 1294 1042 745 608 513 526 483 447 509 614 652 733 803 826 822 803 527 375 297 162 180 135 158 211 219 230 274 202 166 164 164 140 170 199 206 224 172 145 100 5 3 0 0 0 0 0 0 2 3 3 2 2 2 2 2 3 4 3 2 5
0 0 0 0 0 0 25 6 4 0 49 177 102 280 41 48 63 8 55 8 7 321 844 243 993 1169 1256 1026 888 670 487 491 388 439 478 564 654 667 707 715 742 737 616 186 157 204 194 258 295 268 271 272 230 164 135 73 110 84 0 0 36 123 97 88 58 32 0 0 0 0 0 1 2 2 2 2 2 2 3 2 2 2 2 2 2 1
0 0 0 0 0 4 0 0 0 0 136 225 124 64 36 11 5 20 111 110 250 280 86 62 818 1255 1119 914 653 505 530 390 355 474 570 601 634 644 675 708 693 726 699 464 284 211 205 238 259 139 107 92 108 33 26 0 0 0 0 0 0 26 29 34 15 10 0 0 0 0 0 1 1 0 1 0 0 2 2 4 2 2 1 0 0 0
0 0 0 3 0 0 0 0 0 82 315 411 178 163 2 44 22 0 0 3 112 203 321 359 1238 1189 929 673 547 520 513 382 303 354 535 682 660 690 732 717 746 519 350 298 288 138 214 227 224 202 129 42 3 2 0 0 0 0 2 4 15 4 13 10 10 4 0 0 0 0 1 0 1 3 2 1 1 0 3 3 3 4 0 0 0 0
0 0 0 0 0 0 0 0 0 0 0 100 503 576 153 534 324 106 219 0 93 303 554 969 1070 1080 812 540 435 427 270 249 292 340 505 645 564 559 555 559 320 359 180 198 204 222 151 244 181 117 6 1 3 1 0 0 0 0 1 5 2 1 4 2 3 0 0 0 0 0 0 0 0 1 2 1 0 2 3 2 2 0 0 0 0 0
0 0 0 0 42 0 0 0 0 0 15 169 719 349 444 242 549 627 16 48 718 483 524 886 1037 974 746 534 414 225 284 281 342 340 421 552 477 522 569 660 515 280 349 417 396 403 302 164 81 37 12 0 0 0 0 0 0 0 3 0 0 0 1 0 0 0 0 0 0 0 0 0 0 0 0 0 2 4 2 1 0 0 0 0 0 0
16 0 0 0 0 0 0 2 0 0 0 389 272 528 266 506 402 504 1 0 1005 595 489 807 994 964 713 595 408 409 497 524 498 423 407 435 456 538 564 554 552 581 535 454 359 242 131 89 29 2 2 1 0 0 0 0 0 0 0 0 0 3 2 2 0 0 0 0 0 0 0 0 1 1 0 0 4 0 0 0 0 0 0 0 0 0
5 0 0 0 0 0 0 0 10 11 62 210 306 398 383 294 658 172 6 252 1036 722 588 883 1102 906 652 437 404 517 938 1037 903 434 406 401 448 517 621 555 376 338 217 109 67 92 75 21 0 0 0 0 0 0 0 0 0 0 0 0 0 0 0 0 0 0 0 0 0 0 0 0 0 1 1 0 0 0 0 0 0 0 0 0 0 0
4 0 0 0 0 0 0 0 19 13 450 360 437 365 353 308 71 140 540 0 574 870 801 920 1061 867 676 570 604 867 707 317 425 349 412 427 486 560 562 486 474 412 291 168 158 75 10 11 0 0 6 0 0 0 0 0 0 0 0 0 0 0 0 0 0 0 0 0 0 0 0 1 3 2 0 0 0 0 0 0 0 0 0 0 0 0
13 0 0 0 0 0 0 6 9 9 78 547 545 463 289 460 248 351 490 467 443 943 843 922 960 622 520 462 338 448 492 319 308 356 353 509 596 519 464 482 446 372 249 155 32 2 0 0 0 0 0 4 14 11 4 3 0 0 0 0 0 0 0 0 0 0 0 0 0 0 0 1 3 2 0 0 0 0 0 0 0 0 0 0 0 0
476 10 0 0 0 0 1 0 11 144 484 608 665 440 498 428 201 295 470 663 777 891 862 814 595 438 292 436 296 332 339 292 303 319 479 635 575 518 445 410 300 256 154 70 33 0 5 0 1 1 0 0 6 14 28 22 19 14 12 8 0 0 0 0 0 0 0 0 0 0 0 0 0 0 0 0 0 0 0 0 0 0 0 0 0 0
458 374 549 20 115 28 4 335 345 39 661 532 473 388 417 178 190 260 520 522 750 810 688 669 476 380 413 238 242 242 291 230 298 371 548 617 592 544 459 352 230 166 121 42 4 0 11 0 0 0 0 0 8 16 20 14 1 1 0 0 0 0 0 0 0 0 0 0 0 0 0 0 0 0 0 0 0 0 0 0 0 0 0 0 0 0
187 327 294 359 366 303 70 93 173 107 160 280 270 245 251 230 180 199 515 549 579 687 534 546 466 380 289 185 187 173 179 179 313 377 494 562 535 516 398 245 98 59 119 94 12 0 1 3 0 0 0 0 0 0 0 0 0 0 0 0 0 0 0 0 0 0 0 0 0 0 0 0 0 0 0 0 0 0 0 0 0 0 0 0 0 0
409 144 222 204 461 67 216 200 434 383 208 198 210 91 176 195 195 267 535 518 523 438 450 429 316 223 191 149 143 127 80 140 249 387 440 476 466 355 227 166 181 82 52 22 1 0 0 0 0 0 0 0 0 0 0 0 0 0 0 0 0 0 0 0 0 0 0 0 0 0 0 0 0 0 0 0 0 0 0 0 0 0 0 0 0 0
344 169 303 565 406 141 599 224 88 1 27 24 69 272 354 192 183 191 471 517 460 402 374 251 271 148 119 89 85 3 42 0 224 386 429 454 352 247 250 187 54 28 1 2 2 2 0 0 0 0 0 0 0 0 0 0 0 0 0 0 0 0 0 0 0 0 0 0 0 0 0 0 0 0 0 0 0 0 0 0 0 0 0 0 0 0
245 21 68 461 338 542 52 57 0 0 14 44 21 30 151 182 185 169 187 229 296 298 229 194 107 103 93 44 36 44 2 12 248 385 456 388 270 261 249 156 34 18 4 14 6 0 0 0 0 0 0 0 0 0 0 0 0 0 0 0 0 0 0 0 0 0 0 0 0 0 0 0 0 0 0 0 0 0 0 0 0 0 0 0 0 0
119 364 336 200 300 266 141 526 232 372 499 247 70 104 73 146 195 178 185 167 147 140 178 127 63 28 4 24 25 43 0 155 326 405 381 273 281 214 115 136 62 11 10 0 0 0 0 0 0 0 0 0 0 0 0 0 0 0 0 0 0 0 0 0 0 0 0 0 0 0 0 0 0 0 0 0 0 0 0 0 0 0 0 0 0 0
268 257 238 189 13 37 394 230 460 375 338 358 241 21 2 1 155 194 183 160 129 35 165 23 11 28 22 17 28 29 51 170 295 319 271 240 237 46 46 36 24 4 0 0 0 0 0 0 0 0 0 0 0 0 0 0 0 0 0 0 0 0 0 0 0 0 0 0 0 0 0 0 0 0 0 0 0 0 0 0 0 0 0 0 0 0
Wind_Speed
nan nan nan nan nan nan nan nan nan nan nan nan nan nan nan nan nan nan nan nan nan nan nan nan nan nan nan nan 23 23 25 24 24 26 21 19 21 24 27 30 30 31 30 30 32 30 35 34 25 25 26 26 23 20 15 14 15 16 16 16 17 18 17 17 18 19 19 19 19 18 18 18 18 18 18 18 17 16 15 15 15 15 15 15 16 15
nan nan nan nan nan nan nan nan nan nan nan nan nan nan nan nan nan nan nan nan nan nan nan nan nan nan nan nan nan 28 25 23 23 21 19 19 22 28 31 31 29 30 30 30 31 32 32 28 23 26 28 24 22 21 17 15 16 15 15 15 17 17 16 16 17 19 19 19 18 17 17 18 19 18 18 19 18 16 16 16 15 15 15 16 17 16
nan nan nan nan nan nan nan nan nan nan nan nan nan nan nan nan nan nan nan nan nan nan nan nan nan nan nan nan nan 27 24 23 25 23 23 26 27 28 28 30 30 27 26 25 26 27 28 27 25 30 31 28 24 23 18 17 16 14 14 15 15 15 15 17 18 19 19 18 18 17 19 18 19 19 19 19 18 17 17 16 16 16 16 17 17 17
nan nan nan nan nan nan nan nan nan nan nan nan nan nan nan nan nan nan nan nan nan nan nan nan nan nan nan nan nan 26 22 25 27 29 30 26 26 22 25 24 24 25 24 23 23 25 26 25 25 30 32 27 23 23 21 18 16 16 15 14 14 14 15 17 19 20 19 20 20 21 21 21 20 20 21 19 18 18 18 17 17 17 17 16 16 17
nan nan nan nan nan nan nan nan nan nan nan nan nan nan nan nan nan nan nan nan nan nan nan nan nan nan nan 26 27 24 25 29 38 36 26 27 27 26 21 20 20 21 22 23 25 24 25 26 26 29 31 28 24 22 19 18 18 19 17 15 15 14 16 18 20 21 21 22 23 24 23 22 22 19 19 19 19 19 18 18 19 19 18 17 16 17
nan nan nan nan nan nan nan nan nan nan nan nan nan nan nan nan nan nan nan nan nan nan nan nan nan nan nan nan nan 24 26 29 34 26 22 23 30 29 25 23 22 21 20 22 23 22 26 27 25 27 29 31 31 26 22 21 24 23 19 18 17 17 19 21 21 22 21 20 22 22 21 20 19 19 19 19 19 20 20 20 21 20 20 19 17 17
nan nan nan nan nan nan nan nan nan nan nan nan nan nan nan nan nan nan nan nan nan nan nan nan nan nan nan nan nan nan 24 25 28 25 22 23 27 28 28 24 24 23 21 22 23 24 25 26 27 29 29 32 31 27 24 25 25 24 23 21 20 22 22 22 21 21 20 20 21 21 20 19 19 20 22 21 21 21 21 21 22 22 21 20 19 18
nan nan nan nan nan nan nan nan nan nan nan nan nan nan nan nan nan nan nan nan nan nan nan nan nan nan nan nan nan nan 20 22 23 22 20 20 23 27 25 20 21 21 22 22 22 24 25 26 28 31 34 32 30 26 23 24 23 23 27 18 22 23 22 23 21 21 22 22 22 21 21 20 20 21 23 22 23 22 22 22 23 23 23 21 20 19
nan nan nan nan nan nan nan nan nan nan nan nan nan nan nan nan nan nan nan nan nan nan nan nan nan nan nan nan nan nan nan 18 18 17 18 18 21 24 22 21 20 21 23 25 25 26 27 27 31 35 38 35 32 26 23 22 21 22 23 20 23 24 22 23 21 22 22 22 22 21 22 22 23 24 23 23 22 23 23 23 23 22 21 21 18 17
nan nan nan nan nan nan nan nan nan nan nan nan nan nan nan nan nan nan nan nan nan nan nan nan nan nan nan nan nan nan nan nan 15 15 15 15 19 22 21 21 22 24 27 27 28 30 30 29 31 34 36 32 29 26 23 22 21 22 23 23 26 26 25 25 25 25 24 23 22 22 23 24 24 23 23 22 23 22 21 22 22 21 20 19 20 18
nan nan nan nan nan nan nan nan nan nan nan nan nan nan nan nan nan nan nan nan nan nan nan nan nan nan nan nan nan nan nan nan 16 15 17 17 19 22 21 20 22 25 28 28 28 30 33 32 31 31 30 29 29 27 26 25 25 26 26 27 28 28 27 27 27 25 25 24 24 24 24 23 24 23 22 22 21 21 20 20 20 19 19 18 19 18
nan nan nan nan nan nan nan nan nan nan nan nan nan nan nan nan nan nan nan nan nan nan nan nan nan nan nan nan nan nan nan nan nan 12 14 16 18 21 21 20 22 25 26 25 28 33 33 32 32 33 33 31 30 28 27 26 27 27 28 29 30 29 29 29 28 28 27 26 26 25 24 24 24 22 21 21 21 20 20 20 19 18 19 20 19 19
nan nan nan nan nan nan nan nan nan nan nan nan nan nan nan nan nan nan nan nan nan nan nan nan nan nan nan nan nan nan nan nan nan nan 13 13 14 18 20 22 24 25 26 26 28 32 33 33 35 37 34 31 29 27 26 27 29 30 30 30 31 31 30 29 28 27 26 25 26 25 25 25 24 23 22 21 21 20 19 19 20 18 19 nan nan nan
nan nan nan nan nan nan nan nan nan nan nan nan nan nan nan nan nan nan nan nan nan nan nan nan nan nan nan nan nan nan 33 30 nan nan nan 14 14 18 20 24 24 25 24 24 26 29 32 35 37 38 34 32 30 27 27 29 31 32 30 30 31 30 29 29 28 28 28 28 27 26 25 24 23 22 21 21 21 nan nan nan nan nan nan nan nan nan
nan nan nan nan nan nan nan nan nan nan nan nan nan nan nan nan nan nan nan nan nan nan nan nan nan nan nan nan nan 42 31 31 30 26 23 19 18 19 21 22 21 22 21 23 25 27 31 35 38 36 34 34 29 26 27 28 29 30 29 29 30 29 29 28 28 27 27 27 26 25 24 23 22 22 nan nan nan nan nan nan nan nan nan nan nan nan
nan nan nan nan nan nan nan nan nan nan nan nan nan nan nan nan nan nan nan nan nan nan nan nan nan nan nan 50 46 38 32 30 29 25 23 23 24 23 20 20 18 19 20 22 25 28 32 37 38 36 39 35 29 27 27 28 28 27 26 26 27 28 28 28 28 27 26 26 26 26 nan nan nan nan nan nan nan nan nan nan nan nan nan nan nan nan
nan nan nan nan nan nan nan nan nan nan nan nan nan nan nan nan nan nan nan nan nan nan nan nan nan nan nan 44 44 34 31 29 28 26 24 25 25 22 20 17 15 16 19 24 26 31 34 38 41 48 51 39 31 28 28 27 27 26 25 25 27 27 28 28 28 28 28 27 27 27 26 26 nan nan nan nan nan nan nan nan nan nan nan nan nan nan
nan nan nan nan nan nan nan nan nan nan nan nan nan nan nan nan nan nan nan nan nan nan nan nan nan nan nan nan 41 38 30 27 25 24 25 26 25 21 19 16 14 15 20 25 31 36 40 45 51 50 40 32 32 31 27 28 28 26 26 27 27 28 29 29 28 28 29 29 29 28 28 27 26 24 24 24 24 nan nan nan nan nan nan nan nan nan
nan nan nan nan nan nan nan nan nan nan nan nan nan nan nan nan nan nan nan nan nan nan nan nan nan nan nan 43 41 35 29 27 24 24 25 26 24 20 19 14 15 20 26 29 36 43 45 47 44 36 28 28 32 32 29 30 29 28 28 27 27 29 30 30 29 28 28 28 28 28 27 27 26 25 25 25 nan nan nan nan nan nan nan nan nan nan
nan nan nan nan nan nan nan nan nan nan nan nan nan nan nan nan nan nan nan nan nan nan nan nan nan nan nan nan nan 33 29 27 26 25 23 24 24 22 20 20 22 27 32 34 37 36 35 34 36 34 32 32 36 37 34 33 31 31 29 26 27 30 nan 31 29 27 27 28 28 28 28 28 26 26 26 nan nan nan nan nan nan nan nan nan nan nan
nan nan nan nan nan nan nan nan nan nan nan nan nan nan nan nan nan nan nan nan nan nan nan nan nan nan nan nan nan nan 30 29 27 24 25 26 26 25 26 25 31 32 30 31 29 26 31 37 41 40 39 42 42 40 36 34 35 33 31 29 28 nan nan nan 29 28 27 27 28 29 29 29 28 27 nan nan nan nan nan nan nan nan nan nan nan nan
nan nan nan nan nan nan nan nan nan nan nan nan nan nan nan nan nan nan nan nan nan nan nan nan nan nan 49 49 44 34 nan 30 28 27 27 27 26 29 29 33 31 28 28 28 26 28 30 36 43 43 43 43 42 39 nan 34 35 35 34 33 nan nan nan 30 30 28 27 27 28 29 29 30 29 nan nan nan nan nan nan nan nan nan nan nan nan nan
nan nan nan nan nan nan nan nan nan nan nan nan nan nan nan nan nan nan nan nan nan nan nan nan nan nan 47 45 41 39 35 31 30 29 29 27 28 33 32 30 28 28 28 28 28 28 30 32 39 45 47 46 45 43 41 38 36 34 31 30 nan nan nan nan 31 29 28 28 29 29 30 31 nan nan nan nan nan nan nan nan nan nan nan nan nan nan
nan nan nan nan nan nan nan nan nan nan nan nan nan nan nan nan nan nan nan nan nan nan nan nan nan 46 44 42 37 32 33 32 31 28 29 28 29 33 30 29 27 26 27 27 26 28 30 32 36 45 51 49 46 45 43 40 nan 32 nan nan nan 32 32 31 30 30 nan 30 30 31 32 33 nan nan nan nan nan nan nan nan nan nan nan nan nan nan
nan nan nan nan nan nan nan nan nan nan nan nan nan nan nan nan nan nan nan nan nan nan nan nan nan nan 44 39 36 29 28 29 28 29 28 27 29 29 28 29 28 28 30 29 28 30 32 32 36 40 44 50 49 46 42 39 34 29 28 nan 30 29 nan nan nan nan nan nan 32 33 34 nan nan nan nan nan nan nan nan nan nan nan nan nan nan nan
nan nan nan nan nan nan nan nan nan nan nan nan nan nan nan nan nan nan nan nan nan nan nan nan nan 45 43 39 36 31 29 28 27 27 31 30 28 27 25 27 29 29 30 32 32 30 30 28 33 40 44 46 47 45 42 37 31 27 27 29 27 nan nan 26 26 nan nan nan 31 32 nan nan nan nan nan nan nan nan nan nan nan nan nan nan nan nan
nan nan nan nan nan nan nan nan nan nan nan nan nan nan nan nan nan nan nan nan nan nan nan nan nan 39 38 37 37 33 28 26 28 29 28 27 26 25 25 26 28 29 31 32 31 28 27 27 30 nan 40 44 43 41 39 35 32 30 28 29 29 28 27 27 27 27 28 30 31 nan nan nan nan nan nan nan nan nan nan nan nan nan nan nan nan nan
nan nan nan nan nan nan nan nan nan nan nan nan nan nan nan nan nan nan nan nan nan nan nan nan nan nan 30 32 33 32 30 29 27 26 26 25 23 24 24 27 30 30 30 30 29 27 28 29 27 27 31 37 37 35 34 33 32 31 29 29 29 29 28 27 27 nan nan nan nan nan nan nan nan nan nan nan nan nan nan nan nan nan nan nan nan nan
nan nan nan nan nan nan nan nan nan nan nan nan nan nan nan nan nan nan nan nan nan nan nan nan nan nan nan 28 30 31 30 28 26 24 25 25 23 23 25 27 29 30 30 31 29 27 29 31 nan 26 27 30 32 33 33 31 nan nan nan nan nan 29 28 26 26 nan nan nan nan nan nan nan nan nan nan nan nan nan nan nan nan nan nan nan nan nan
nan nan nan nan nan nan nan nan nan nan nan nan nan nan nan nan nan nan nan nan nan nan nan nan nan nan nan 30 31 32 32 31 29 26 25 25 23 23 24 26 29 30 31 32 30 30 32 33 nan nan 27 27 28 29 nan nan nan nan nan nan nan 27 26 25 26 nan nan nan nan nan nan nan nan nan nan nan nan nan nan nan nan nan nan nan nan nan
nan nan nan nan nan nan nan nan nan nan nan nan nan nan nan nan nan nan nan nan nan nan nan nan nan nan 41 38 35 33 32 32 31 26 23 24 23 22 23 25 28 30 32 33 33 34 35 nan 30 30 nan 26 26 nan nan nan nan nan nan nan 28 26 25 26 27 nan nan nan nan nan nan nan nan nan nan nan nan nan nan nan nan nan nan nan nan nan
nan nan nan nan nan nan nan nan nan nan nan nan nan nan nan nan nan nan nan nan nan nan nan nan nan nan 36 35 34 30 27 29 28 25 22 20 21 23 22 23 26 29 32 33 35 37 35 35 34 29 26 24 25 26 26 nan nan 24 25 26 27 27 28 30 nan nan nan nan nan nan nan nan nan nan nan nan nan nan nan nan nan nan nan nan nan nan
nan nan nan nan nan nan nan nan nan nan nan nan nan nan nan nan nan nan nan nan nan nan nan nan nan nan 33 33 30 25 23 23 24 22 21 20 20 21 22 23 25 29 33 35 36 36 34 30 27 24 20 20 22 24 26 27 26 25 26 28 29 30 33 34 nan nan nan nan nan nan nan nan nan nan nan nan nan nan nan nan nan nan nan nan nan nan
nan nan nan nan nan nan nan nan nan nan nan nan 44 49 nan nan nan nan nan nan nan nan nan nan 36 37 35 30 26 23 20 18 19 19 20 21 21 21 22 23 25 29 33 33 31 29 27 23 23 22 21 22 25 27 28 28 29 30 30 31 32 34 35 35 nan nan nan nan nan nan nan nan nan nan nan nan nan nan nan nan nan nan nan nan nan nan
nan nan nan nan nan nan nan nan nan nan nan 42 36 42 nan nan nan nan nan nan nan 34 38 35 33 31 28 27 27 27 25 25 24 22 20 22 21 21 22 23 26 30 28 30 32 28 26 27 28 27 27 28 29 29 28 nan 30 nan nan nan nan 34 nan nan nan nan nan nan nan nan nan nan nan nan nan nan nan nan nan nan nan nan nan nan nan nan
nan nan nan nan nan nan nan nan nan nan 37 30 35 nan nan nan nan nan 37 34 33 29 nan nan 30 32 32 31 30 28 29 28 26 23 22 21 21 23 23 24 27 27 27 30 32 31 31 29 28 28 29 nan 30 nan nan nan nan nan nan nan nan nan nan nan nan nan nan nan nan nan nan nan nan nan nan nan nan nan nan nan nan nan nan nan nan nan
nan nan nan nan nan nan nan nan nan nan 28 29 31 29 nan nan nan nan nan nan 27 29 29 30 33 33 32 31 31 31 31 30 27 23 21 20 19 22 25 26 28 28 31 33 33 32 31 30 29 29 29 nan nan nan nan nan nan nan nan nan nan nan nan nan nan nan nan nan nan nan nan nan nan nan nan nan nan nan nan nan nan nan nan nan nan nan
nan nan nan nan nan nan nan nan nan nan nan 24 32 34 27 34 29 29 33 nan nan 28 30 30 31 32 33 33 31 32 32 31 26 21 19 19 19 22 22 27 28 30 33 33 32 32 32 32 32 30 nan nan nan nan nan nan nan nan nan nan nan nan nan nan nan nan nan nan nan nan nan nan nan nan nan nan nan nan nan nan nan nan nan nan nan nan
nan nan nan nan nan nan nan nan nan nan nan 28 31 32 30 33 29 31 nan nan 29 28 28 29 31 31 32 31 31 30 29 24 19 19 19 19 20 22 25 26 27 27 27 28 29 31 31 31 nan nan nan nan nan nan nan nan nan nan nan nan nan nan nan nan nan nan nan nan nan nan nan nan nan nan nan nan nan nan nan nan nan nan nan nan nan nan
nan nan nan nan nan nan nan nan nan nan nan 30 31 30 31 32 34 27 nan nan 32 28 28 28 29 31 31 29 28 26 23 19 14 17 20 21 22 23 27 28 27 26 27 28 30 32 33 nan nan nan nan nan nan nan nan nan nan nan nan nan nan nan nan nan nan nan nan nan nan nan nan nan nan nan nan nan nan nan nan nan nan nan nan nan nan nan
nan nan nan nan nan nan nan nan nan nan nan 30 30 29 31 31 29 27 nan 35 33 25 26 26 25 28 29 28 23 20 19 26 22 26 24 25 27 29 29 31 29 29 32 33 nan nan nan nan nan nan nan nan nan nan nan nan nan nan nan nan nan nan nan nan nan nan nan nan nan nan nan nan nan nan nan nan nan nan nan nan nan nan nan nan nan nan
nan nan nan nan nan nan nan nan nan nan 31 30 28 29 27 28 nan 28 37 nan 27 24 25 25 28 29 27 24 23 23 29 31 35 31 25 24 27 29 30 31 32 33 34 36 37 nan nan nan nan nan nan nan nan nan nan nan nan nan nan nan nan nan nan nan nan nan nan nan nan nan nan nan nan nan nan nan nan nan nan nan nan nan nan nan nan nan
nan nan nan nan nan nan nan nan nan nan nan 23 30 28 27 28 32 36 32 30 28 25 26 27 28 28 26 24 25 32 34 33 32 29 26 26 30 30 30 31 33 35 36 37 nan nan nan nan nan nan nan nan nan nan nan nan nan nan nan nan nan nan nan nan nan nan nan nan nan nan nan nan nan nan nan nan nan nan nan nan nan nan nan nan nan nan
16 nan nan nan nan nan nan nan nan 27 27 21 22 24 19 29 32 33 32 28 26 24 24 26 24 24 24 25 29 29 31 33 32 31 31 32 33 32 32 32 35 37 35 nan nan nan nan nan nan nan nan nan nan nan nan nan nan nan nan nan nan nan nan nan nan nan nan nan nan nan nan nan nan nan nan nan nan nan nan nan nan nan nan nan nan nan
13 15 17 nan 20 nan nan 25 28 nan 27 27 30 30 31 29 28 29 32 30 23 23 22 22 22 21 20 27 30 30 29 29 29 31 33 34 34 34 33 34 35 36 35 nan nan nan nan nan nan nan nan nan nan nan nan nan nan nan nan nan nan nan nan nan nan nan nan nan nan nan nan nan nan nan nan nan nan nan nan nan nan nan nan nan nan nan
14 13 13 16 21 29 nan nan 25 23 24 25 27 29 28 26 23 24 26 27 26 24 22 20 19 19 24 28 30 28 28 29 32 31 34 35 36 36 37 36 nan nan 34 nan nan nan nan nan nan nan nan nan nan nan nan nan nan nan nan nan nan nan nan nan nan nan nan nan nan nan nan nan nan nan nan nan nan nan nan nan nan nan nan nan nan nan
13 12 11 11 21 nan 23 26 24 23 23 24 24 nan 25 23 21 21 21 23 25 24 22 25 27 25 26 26 27 26 nan 29 30 30 33 36 37 36 37 37 35 nan nan nan nan nan nan nan nan nan nan nan nan nan nan nan nan nan nan nan nan nan nan nan nan nan nan nan nan nan nan nan nan nan nan nan nan nan nan nan nan nan nan nan nan nan
11 16 13 11 13 16 25 26 nan nan nan nan nan 21 22 23 21 19 21 21 21 21 24 24 24 24 24 nan nan nan nan nan 27 28 32 34 35 35 36 36 nan nan nan nan nan nan nan nan nan nan nan nan nan nan nan nan nan nan nan nan nan nan nan nan nan nan nan nan nan nan nan nan nan nan nan nan nan nan nan nan nan nan nan nan nan nan
18 nan nan 13 11 18 nan nan nan nan nan nan nan nan 24 25 23 19 19 19 20 20 19 20 20 20 nan nan nan nan nan nan 27 30 33 34 35 35 35 34 nan nan nan nan nan nan nan nan nan nan nan nan nan nan nan nan nan nan nan nan nan nan nan nan nan nan nan nan nan nan nan nan nan nan nan nan nan nan nan nan nan nan nan nan nan nan
14 10 17 17 15 17 21 23 20 22 22 18 nan 18 nan 21 21 21 19 19 19 18 18 17 nan nan nan nan nan nan nan 25 27 30 32 33 33 34 34 34 nan nan nan nan nan nan nan nan nan nan nan nan nan nan nan nan nan nan nan nan nan nan nan nan nan nan nan nan nan nan nan nan nan nan nan nan nan nan nan nan nan nan nan nan nan nan
17 21 19 20 nan nan 29 27 27 29 26 26 17 nan nan nan 19 19 18 18 18 nan 16 nan nan nan nan nan nan nan nan 25 26 29 31 31 31 nan nan nan nan nan nan nan nan nan nan nan nan nan nan nan nan nan nan nan nan nan nan nan nan nan nan nan nan nan nan nan nan nan nan nan nan nan nan nan nan nan nan nan nan nan nan nan nan nan
Wind_Direction
nan nan nan nan nan nan nan nan nan nan nan nan nan nan nan nan nan nan nan nan nan nan nan nan nan nan nan nan 232 237 239 239 238 241 240 243 244 249 251 252 251 251 249 253 255 256 251 243 244 249 242 241 231 222 220 227 234 236 238 244 251 248 248 250 255 258 260 264 265 266 270 274 280 282 286 288 293 300 297 301 304 308 308 311 312 313
nan nan nan nan nan nan nan nan nan nan nan nan nan nan nan nan nan nan nan nan nan nan nan nan nan nan nan nan nan 235 236 242 242 247 248 245 243 245 249 250 249 249 251 257 254 258 265 258 251 247 233 226 229 225 222 225 228 233 236 243 246 243 248 250 253 255 257 260 259 263 268 271 275 280 284 288 292 294 298 304 306 309 311 312 314 314
nan nan nan nan nan nan nan nan nan nan nan nan nan nan nan nan nan nan nan nan nan nan nan nan nan nan nan nan nan 236 234 237 244 237 238 239 233 243 245 244 246 251 258 261 265 271 272 266 256 247 234 218 213 222 218 219 223 228 231 234 240 238 247 249 251 252 252 254 255 257 263 267 270 270 269 277 286 293 296 303 307 310 310 313 313 312
nan nan nan nan nan nan nan nan nan nan nan nan nan nan nan nan nan nan nan nan nan nan nan nan nan nan nan nan nan 230 227 232 240 243 232 236 253 245 243 241 251 260 262 265 270 273 273 270 255 241 233 227 222 221 212 215 218 216 221 232 237 240 242 246 246 246 245 249 251 253 257 261 262 271 278 284 291 295 301 305 307 306 307 309 310 310
nan nan nan nan nan nan nan nan nan nan nan nan nan nan nan nan nan nan nan nan nan nan nan nan nan nan nan 235 233 227 224 228 234 233 240 241 245 248 258 254 261 267 265 263 268 271 267 263 254 242 241 244 245 239 222 215 215 215 227 231 234 236 239 240 243 245 247 250 253 255 260 263 268 272 276 281 285 290 295 299 301 302 303 305 307 306
nan nan nan nan nan nan nan nan nan nan nan nan nan nan nan nan nan nan nan nan nan nan nan nan nan nan nan nan nan 234 229 231 232 232 239 245 245 253 260 261 258 259 261 267 277 277 264 257 247 235 242 254 256 244 226 212 218 222 232 240 239 235 237 241 245 247 248 252 251 256 260 265 269 273 275 278 281 285 288 292 293 293 296 300 303 305
nan nan nan nan nan nan nan nan nan nan nan nan nan nan nan nan nan nan nan nan nan nan nan nan nan nan nan nan nan nan 236 236 231 227 231 240 253 253 253 257 258 258 260 268 278 274 262 256 243 232 242 252 251 240 225 219 219 222 232 237 241 241 238 244 245 250 251 251 251 255 258 259 263 268 269 269 271 275 282 284 288 291 292 297 300 302
nan nan nan nan nan nan nan nan nan nan nan nan nan nan nan nan nan nan nan nan nan nan nan nan nan nan nan nan nan nan 239 238 234 226 225 232 243 248 249 252 255 256 261 264 271 265 256 253 244 240 246 247 245 242 228 224 225 231 239 233 243 241 245 243 246 249 248 251 252 254 255 255 261 264 265 268 268 272 278 283 284 290 293 295 297 297
nan nan nan nan nan nan nan nan nan nan nan nan nan nan nan nan nan nan nan nan nan nan nan nan nan nan nan nan nan nan nan 236 230 223 225 227 236 243 244 243 247 251 253 255 257 259 255 247 245 248 252 248 251 250 237 229 233 236 242 247 246 246 249 253 254 251 251 249 250 253 259 263 262 265 267 269 273 278 279 281 283 285 290 294 294 297
nan nan nan nan nan nan nan nan nan nan nan nan nan nan nan nan nan nan nan nan nan nan nan nan nan nan nan nan nan nan nan nan 230 220 221 229 235 241 242 244 245 245 245 246 252 257 257 252 252 252 250 251 255 253 242 235 236 237 245 247 247 247 248 250 251 250 250 251 253 256 261 264 266 267 268 271 275 278 281 283 283 286 287 289 295 294
nan nan nan nan nan nan nan nan nan nan nan nan nan nan nan nan nan nan nan nan nan nan nan nan nan nan nan nan nan nan nan nan 235 220 219 227 234 241 244 244 242 244 247 245 252 258 259 255 252 247 247 257 259 250 243 237 237 239 239 245 249 247 246 247 247 247 248 248 249 255 260 264 267 267 269 273 276 276 278 277 279 281 282 288 287 292
nan nan nan nan nan nan nan nan nan nan nan nan nan nan nan nan nan nan nan nan nan nan nan nan nan nan nan nan nan nan nan nan nan 226 223 225 235 242 247 246 246 250 251 249 252 259 261 258 251 242 251 265 264 252 246 244 242 243 242 243 246 245 245 242 242 243 243 245 247 251 256 258 259 263 265 266 267 268 272 273 276 280 287 288 292 294
nan nan nan nan nan nan nan nan nan nan nan nan nan nan nan nan nan nan nan nan nan nan nan nan nan nan nan nan nan nan nan nan nan nan 227 229 236 245 250 249 246 249 254 251 254 259 262 259 250 245 254 269 267 258 256 251 245 242 242 245 246 244 244 243 243 246 246 248 249 250 251 251 249 248 252 258 263 263 268 274 276 280 284 nan nan nan
nan nan nan nan nan nan nan nan nan nan nan nan nan nan nan nan nan nan nan nan nan nan nan nan nan nan nan nan nan nan 230 231 nan nan nan 234 233 244 248 246 244 248 254 254 257 259 261 258 250 248 258 268 264 263 261 254 248 246 242 244 246 245 243 244 245 245 247 246 246 245 245 247 250 253 253 258 263 nan nan nan nan nan nan nan nan nan
nan nan nan nan nan nan nan nan nan nan nan nan nan nan nan nan nan nan nan nan nan nan nan nan nan nan nan nan nan 229 226 229 233 231 228 228 240 246 250 250 251 250 250 255 259 263 265 260 254 250 258 263 259 263 258 253 253 251 248 247 248 250 248 248 248 247 248 246 243 241 242 243 250 254 nan nan nan nan nan nan nan nan nan nan nan nan
nan nan nan nan nan nan nan nan nan nan nan nan nan nan nan nan nan nan nan nan nan nan nan nan nan nan nan 230 228 224 230 233 237 238 239 243 245 250 255 258 258 253 253 259 261 263 267 259 250 246 252 250 247 248 247 252 254 253 254 255 255 256 254 252 251 248 246 246 245 245 nan nan nan nan nan nan nan nan nan nan nan nan nan nan nan nan
nan nan nan nan nan nan nan nan nan nan nan nan nan nan nan nan nan nan nan nan nan nan nan nan nan nan nan 235 232 230 232 236 239 245 249 255 257 260 260 262 266 262 267 259 261 257 259 252 242 240 243 231 225 233 240 244 251 255 255 256 257 257 256 254 251 248 248 250 251 250 251 253 nan nan nan nan nan nan nan nan nan nan nan nan nan nan
nan nan nan nan nan nan nan nan nan nan nan nan nan nan nan nan nan nan nan nan nan nan nan nan nan nan nan nan 238 239 236 241 243 250 255 259 263 266 263 266 272 277 267 258 256 253 247 239 239 237 239 238 229 228 234 244 247 248 248 254 256 256 256 253 250 249 249 251 252 253 253 254 255 258 259 260 262 nan nan nan nan nan nan nan nan nan
nan nan nan nan nan nan nan nan nan nan nan nan nan nan nan nan nan nan nan nan nan nan nan nan nan nan nan 238 241 244 245 249 251 255 261 265 267 269 264 269 270 263 253 247 243 242 240 242 245 246 244 243 237 239 242 247 248 245 246 249 253 254 253 252 249 248 247 246 248 250 251 253 253 254 256 258 nan nan nan nan nan nan nan nan nan nan
nan nan nan nan nan nan nan nan nan nan nan nan nan nan nan nan nan nan nan nan nan nan nan nan nan nan nan nan nan 249 249 253 255 258 263 269 268 266 259 256 256 253 247 250 259 265 267 256 250 253 255 250 239 239 243 247 247 250 248 251 253 254 nan 257 256 254 253 251 251 251 251 250 250 250 254 nan nan nan nan nan nan nan nan nan nan nan
nan nan nan nan nan nan nan nan nan nan nan nan nan nan nan nan nan nan nan nan nan nan nan nan nan nan nan nan nan nan 249 254 259 259 256 259 264 264 261 253 248 253 265 275 280 285 279 258 250 241 238 237 235 234 233 237 241 242 242 245 248 nan nan nan 258 257 255 254 253 252 250 250 248 250 nan nan nan nan nan nan nan nan nan nan nan nan
nan nan nan nan nan nan nan nan nan nan nan nan nan nan nan nan nan nan nan nan nan nan nan nan nan nan 236 231 228 230 nan 249 253 256 255 259 265 265 253 251 257 260 273 281 273 274 271 259 249 243 238 239 241 239 nan 236 239 242 243 239 nan nan nan 252 251 250 250 251 251 251 251 251 250 nan nan nan nan nan nan nan nan nan nan nan nan nan
nan nan nan nan nan nan nan nan nan nan nan nan nan nan nan nan nan nan nan nan nan nan nan nan nan nan 232 233 232 227 233 242 250 252 255 260 266 262 256 259 261 266 274 278 274 272 273 267 252 243 242 241 242 242 242 240 240 241 247 248 nan nan nan nan 242 242 242 245 248 250 251 251 nan nan nan nan nan nan nan nan nan nan nan nan nan nan
nan nan nan nan nan nan nan nan nan nan nan nan nan nan nan nan nan nan nan nan nan nan nan nan nan 230 231 234 234 230 231 237 243 250 255 258 260 257 261 262 264 270 278 280 278 271 268 266 255 250 249 245 244 244 243 244 nan 249 nan nan nan 247 246 243 242 243 nan 246 248 249 251 252 nan nan nan nan nan nan nan nan nan nan nan nan nan nan
nan nan nan nan nan nan nan nan nan nan nan nan nan nan nan nan nan nan nan nan nan nan nan nan nan nan 236 236 239 237 237 238 243 249 255 258 257 259 262 262 262 267 271 275 273 273 273 271 267 258 250 249 246 243 244 248 250 257 257 nan 246 249 nan nan nan nan nan nan 251 252 254 nan nan nan nan nan nan nan nan nan nan nan nan nan nan nan
nan nan nan nan nan nan nan nan nan nan nan nan nan nan nan nan nan nan nan nan nan nan nan nan nan 236 240 240 246 248 244 242 241 246 251 251 252 256 259 261 262 264 269 273 275 279 280 274 266 260 254 248 245 245 247 249 251 255 254 249 245 nan nan 251 251 nan nan nan 256 256 nan nan nan nan nan nan nan nan nan nan nan nan nan nan nan nan
nan nan nan nan nan nan nan nan nan nan nan nan nan nan nan nan nan nan nan nan nan nan nan nan nan 238 242 247 251 253 251 251 251 248 249 251 253 254 255 254 256 261 267 274 276 275 276 279 275 nan 249 247 246 247 247 251 260 261 254 252 251 250 251 253 254 256 259 260 260 nan nan nan nan nan nan nan nan nan nan nan nan nan nan nan nan nan
nan nan nan nan nan nan nan nan nan nan nan nan nan nan nan nan nan nan nan nan nan nan nan nan nan nan 239 250 253 257 256 257 254 250 249 249 252 253 251 254 259 261 265 269 274 277 278 281 278 266 249 245 251 254 253 256 263 262 255 254 254 253 252 252 254 nan nan nan nan nan nan nan nan nan nan nan nan nan nan nan nan nan nan nan nan nan
nan nan nan nan nan nan nan nan nan nan nan nan nan nan nan nan nan nan nan nan nan nan nan nan nan nan nan 246 256 259 263 261 259 257 255 252 249 250 252 256 261 263 268 273 275 272 271 272 nan 266 256 252 260 263 262 266 nan nan nan nan nan 250 249 253 258 nan nan nan nan nan nan nan nan nan nan nan nan nan nan nan nan nan nan nan nan nan
nan nan nan nan nan nan nan nan nan nan nan nan nan nan nan nan nan nan nan nan nan nan nan nan nan nan nan 238 251 253 257 260 258 256 255 257 258 259 258 257 259 263 269 272 270 266 261 261 nan nan 263 266 275 277 nan nan nan nan nan nan nan 249 251 256 260 nan nan nan nan nan nan nan nan nan nan nan nan nan nan nan nan nan nan nan nan nan
nan nan nan nan nan nan nan nan nan nan nan nan nan nan nan nan nan nan nan nan nan nan nan nan nan nan 227 233 244 248 253 258 261 264 266 263 264 264 262 260 261 264 268 268 266 261 260 nan 269 271 nan 274 282 nan nan nan nan nan nan nan 255 256 258 262 264 nan nan nan nan nan nan nan nan nan nan nan nan nan nan nan nan nan nan nan nan nan
nan nan nan nan nan nan nan nan nan nan nan nan nan nan nan nan nan nan nan nan nan nan nan nan nan nan 236 239 243 249 256 264 268 270 270 268 269 265 262 261 263 266 267 265 263 262 259 262 269 266 263 270 279 284 282 nan nan 276 268 263 263 264 265 267 nan nan nan nan nan nan nan nan nan nan nan nan nan nan nan nan nan nan nan nan nan nan
nan nan nan nan nan nan nan nan nan nan nan nan nan nan nan nan nan nan nan nan nan nan nan nan nan nan 247 250 252 252 256 261 267 273 273 275 273 266 264 262 261 262 262 263 261 260 260 268 273 273 267 271 274 277 281 282 278 274 271 269 266 267 269 270 nan nan nan nan nan nan nan nan nan nan nan nan nan nan nan nan nan nan nan nan nan nan
nan nan nan nan nan nan nan nan nan nan nan nan 211 207 nan nan nan nan nan nan nan nan nan nan 224 239 252 255 259 262 262 260 259 261 265 268 268 266 265 263 260 257 255 257 261 268 275 279 284 285 281 276 276 273 274 272 271 271 271 271 271 271 271 272 nan nan nan nan nan nan nan nan nan nan nan nan nan nan nan nan nan nan nan nan nan nan
nan nan nan nan nan nan nan nan nan nan nan 215 209 211 nan nan nan nan nan nan nan 223 222 226 232 242 246 246 248 250 248 246 250 254 260 267 269 266 268 267 266 262 261 265 272 279 284 290 291 290 284 279 276 276 276 nan 270 nan nan nan nan 273 nan nan nan nan nan nan nan nan nan nan nan nan nan nan nan nan nan nan nan nan nan nan nan nan
nan nan nan nan nan nan nan nan nan nan 220 215 215 nan nan nan nan nan 216 217 218 222 nan nan 231 238 240 241 245 249 254 255 253 253 257 265 271 268 268 268 268 265 267 268 272 276 286 292 293 288 283 nan 279 nan nan nan nan nan nan nan nan nan nan nan nan nan nan nan nan nan nan nan nan nan nan nan nan nan nan nan nan nan nan nan nan nan
nan nan nan nan nan nan nan nan nan nan 221 225 218 218 nan nan nan nan nan nan 225 225 227 228 237 242 245 244 245 249 253 256 255 254 263 268 273 275 276 275 278 276 272 270 270 275 283 287 286 284 281 nan nan nan nan nan nan nan nan nan nan nan nan nan nan nan nan nan nan nan nan nan nan nan nan nan nan nan nan nan nan nan nan nan nan nan
nan nan nan nan nan nan nan nan nan nan nan 221 220 223 226 213 220 220 213 nan nan 232 230 234 243 249 250 249 250 250 254 252 252 253 267 277 284 277 269 274 269 268 266 268 273 278 280 280 279 280 nan nan nan nan nan nan nan nan nan nan nan nan nan nan nan nan nan nan nan nan nan nan nan nan nan nan nan nan nan nan nan nan nan nan nan nan
nan nan nan nan nan nan nan nan nan nan nan 225 221 221 225 217 219 220 nan nan 231 238 237 239 247 252 256 260 258 256 254 251 256 262 275 284 289 281 277 278 276 270 274 281 282 279 278 276 nan nan nan nan nan nan nan nan nan nan nan nan nan nan nan nan nan nan nan nan nan nan nan nan nan nan nan nan nan nan nan nan nan nan nan nan nan nan
nan nan nan nan nan nan nan nan nan nan nan 222 224 223 223 216 220 218 nan nan 239 246 246 243 250 255 255 262 266 263 259 251 264 270 282 284 279 284 284 280 275 272 274 272 267 269 269 nan nan nan nan nan nan nan nan nan nan nan nan nan nan nan nan nan nan nan nan nan nan nan nan nan nan nan nan nan nan nan nan nan nan nan nan nan nan nan
nan nan nan nan nan nan nan nan nan nan nan 221 221 228 221 217 211 218 nan 220 226 243 252 253 256 260 262 266 264 255 244 218 238 263 280 279 277 275 273 274 276 276 275 271 nan nan nan nan nan nan nan nan nan nan nan nan nan nan nan nan nan nan nan nan nan nan nan nan nan nan nan nan nan nan nan nan nan nan nan nan nan nan nan nan nan nan
nan nan nan nan nan nan nan nan nan nan 214 219 228 228 222 217 nan 218 217 nan 214 232 241 246 252 253 257 259 248 238 237 241 260 266 272 273 268 266 271 269 266 264 264 268 274 nan nan nan nan nan nan nan nan nan nan nan nan nan nan nan nan nan nan nan nan nan nan nan nan nan nan nan nan nan nan nan nan nan nan nan nan nan nan nan nan nan
nan nan nan nan nan nan nan nan nan nan nan 223 237 228 211 207 212 210 209 217 211 228 238 243 247 251 253 254 245 241 250 257 266 273 274 270 261 263 264 264 264 266 268 272 nan nan nan nan nan nan nan nan nan nan nan nan nan nan nan nan nan nan nan nan nan nan nan nan nan nan nan nan nan nan nan nan nan nan nan nan nan nan nan nan nan nan
198 nan nan nan nan nan nan nan nan 208 223 231 234 216 220 206 210 208 203 215 218 226 235 238 246 252 257 255 250 253 255 262 266 272 270 264 260 259 260 262 266 271 274 nan nan nan nan nan nan nan nan nan nan nan nan nan nan nan nan nan nan nan nan nan nan nan nan nan nan nan nan nan nan nan nan nan nan nan nan nan nan nan nan nan nan nan
207 187 194 nan 219 nan nan 208 211 nan 218 219 212 217 209 206 205 205 203 209 217 224 228 235 250 260 265 258 255 256 258 260 267 268 265 266 265 266 267 268 270 274 278 nan nan nan nan nan nan nan nan nan nan nan nan nan nan nan nan nan nan nan nan nan nan nan nan nan nan nan nan nan nan nan nan nan nan nan nan nan nan nan nan nan nan nan
205 195 195 193 217 214 nan nan 210 213 217 219 213 211 209 205 205 204 206 215 219 223 229 236 251 265 263 262 259 257 256 260 264 262 261 262 262 263 266 269 nan nan 282 nan nan nan nan nan nan nan nan nan nan nan nan nan nan nan nan nan nan nan nan nan nan nan nan nan nan nan nan nan nan nan nan nan nan nan nan nan nan nan nan nan nan nan
209 204 200 200 217 nan 207 219 215 220 220 218 219 nan 212 205 203 202 206 210 220 229 232 236 247 253 257 258 258 256 nan 259 262 260 259 259 262 265 269 273 276 nan nan nan nan nan nan nan nan nan nan nan nan nan nan nan nan nan nan nan nan nan nan nan nan nan nan nan nan nan nan nan nan nan nan nan nan nan nan nan nan nan nan nan nan nan
217 203 185 198 211 195 205 210 nan nan nan nan nan 222 224 221 215 207 206 209 217 225 229 239 249 251 253 nan nan nan nan nan 262 258 252 257 260 262 265 271 nan nan nan nan nan nan nan nan nan nan nan nan nan nan nan nan nan nan nan nan nan nan nan nan nan nan nan nan nan nan nan nan nan nan nan nan nan nan nan nan nan nan nan nan nan nan
207 nan nan 203 193 204 nan nan nan nan nan nan nan nan 216 220 225 221 215 216 217 223 225 233 240 245 nan nan nan nan nan nan 253 253 253 254 258 260 264 269 nan nan nan nan nan nan nan nan nan nan nan nan nan nan nan nan nan nan nan nan nan nan nan nan nan nan nan nan nan nan nan nan nan nan nan nan nan nan nan nan nan nan nan nan nan nan
201 191 202 196 191 194 193 203 209 204 208 211 nan 208 nan 214 216 225 221 219 219 221 223 232 nan nan nan nan nan nan nan 247 250 253 255 254 259 266 270 272 nan nan nan nan nan nan nan nan nan nan nan nan nan nan nan nan nan nan nan nan nan nan nan nan nan nan nan nan nan nan nan nan nan nan nan nan nan nan nan nan nan nan nan nan nan nan
200 201 196 195 nan nan 202 204 207 207 210 200 202 nan nan nan 210 217 216 216 218 nan 225 nan nan nan nan nan nan nan nan 247 252 254 255 256 263 nan nan nan nan nan nan nan nan nan nan nan nan nan nan nan nan nan nan nan nan nan nan nan nan nan nan nan nan nan nan nan nan nan nan nan nan nan nan nan nan nan nan nan nan nan nan nan nan nan